Simultaneous Nadir Overpasses (SNOs) Predictions

Prediction of SNOs between AQUA and NOAA-19 Satellite Orbit:

Table of predicted SNOs for the next 14.0 days since TLE Epoch: 3/15/2025
Index Date (AQUA) Time (AQUA) Lat,Lon (AQUA) SZA (AQUA ) Date (NOAA-19) Time (NOAA-19) Lat,Lon (NOAA-19) SZA (NOAA-19 ) Distance(km) Time Diff (sec)
1 03/16/2025 15:53:07 -75.60, 125.41 103.02 03/16/2025 15:52:00 -75.61, 125.28 103.01 3.71 67
2 03/16/2025 16:42:28 75.68, -67.17 77.06 03/16/2025 16:42:59 75.69, -67.20 77.07 0.97 31
3 03/18/2025 18:50:28 -75.65, 80.99 103.81 03/18/2025 18:50:20 -75.64, 80.85 103.81 4.01 8
4 03/20/2025 20:58:28 75.64,-130.93 75.36 03/20/2025 20:57:45 75.65,-130.92 75.38 2.00 43
5 03/20/2025 21:47:48 -75.72, 36.48 104.57 03/20/2025 21:48:39 -75.71, 36.53 104.58 2.16 51
6 03/22/2025 23:06:21 -75.41, 17.81 105.69 03/22/2025 23:05:11 -75.32, 16.21 105.79 45.74 70
7 03/22/2025 23:55:46 75.70,-175.38 74.59 03/22/2025 23:56:05 75.68,-175.37 74.57 2.00 19
8 03/25/2025 02:03:41 -75.64, -27.15 106.29 03/25/2025 02:03:24 -75.64, -27.28 106.29 3.56 17
9 03/25/2025 02:53:09 76.08, 139.16 74.13 03/25/2025 02:54:16 76.10, 141.55 74.18 63.91 67
10 03/27/2025 04:11:36 75.63, 120.96 72.88 03/27/2025 04:10:49 75.66, 120.97 72.92 3.54 47



Historial Predications of SNOs between AQUA and NOAA-19
